sat.trackr.live / text

‹ back to catalog

STARLINK-33968

NORAD 63883 · 2025-094V

PAYLOAD ACTIVE UNKNOWN

§ Identity

Operator
Country
US
Launch date
2025-05-10
Launch site
AFWTR
Launch vehicle
Mass (kg)
RCS (m²)

Purposes: comms

External: N2YO · Heavens-Above · Gunter

§ Orbital elements

Epoch: 2026-09-20T16:00:01.999584Z

Period
94.09 min
Inclination
69.9998°
Eccentricity
0.0003285
Mean motion
15.30444290 rev/d
Perigee alt
472.2 km
Apogee alt
476.7 km
Semi-major
6,852.6 km
B*
-1.4642e-3
RAAN
100.5617°
Arg perigee
266.5164°
Mean anomaly
188.7460°
Rev number
578

§ Raw data

STARLINK-339681 63883U 25094V   26263.66668981 -.00043109  00000+0 -14642-2 0  99942 63883  69.9998 100.5617 0003285 266.5164 188.7460 15.30444290  5784

JSON: /api/v1/satellites/63883 · /tle

For live sub-satellite position, see the globe view (requires WebGL).

§ Visibility from observer

Set your observer location to see the next 7 days of passes ≥ 10°. The values pass through the URL so the page stays shareable.

No JS? Fill the form by hand. The geolocation button needs JavaScript.